Simultaneous Nadir Overpasses (SNOs) Predictions

Prediction of SNOs between GOES-15 and METOP-A Satellite Orbit:

Table of predicted SNOs for the next 14.0 days since TLE Epoch: 8/23/2014
Index Date Time (GOES-15) GOES-15 Lat,Lon METOP-A Lat,Lon Distance(km) Time Diff (sec)
1 08/23/2014 06:37:15 -0.12,-135.37 -0.36,-136.39 116.69 80
2 08/24/2014 06:13:56 -0.09,-135.35 0.77,-131.40 450.05 80
3 08/25/2014 18:35:29 0.13,-135.34 0.27,-135.96 70.42 80
4 08/26/2014 18:12:10 0.10,-135.32 -0.87,-130.97 495.98 80
5 08/28/2014 06:33:51 -0.13,-135.27 -0.18,-135.56 31.87 80
6 08/30/2014 18:29:24 0.14,-135.23 0.09,-135.12 13.08 80
7 09/02/2014 06:27:45 -0.16,-135.14 -0.05,-134.71 49.00 80
8 09/03/2014 18:49:16 0.19,-135.10 1.15,-139.25 473.81 80
9 09/04/2014 18:25:58 0.17,-135.07 0.00,-134.27 91.02 80




NCC Satellite Simultaneous Nadir Overpasses (SNOs) Prediction Service
